TimeEDT,TemperatureF,Dew PointF,Humidity,Sea Level PressureIn,VisibilityMPH,Wind Direction,Wind SpeedMPH,Gust SpeedMPH,PrecipitationIn,Events,Conditions,WindDirDegrees,DateUTC
12:53 AM,78.1,69.1,74,29.98,10.0,NNE,6.9,-,N/A,,Mostly Cloudy,30,2014-05-03 04:53:00
1:53 AM,77.0,70.0,79,29.96,10.0,NE,4.6,-,N/A,,Mostly Cloudy,40,2014-05-03 05:53:00
2:53 AM,77.0,69.1,76,29.94,10.0,NE,5.8,-,N/A,,Mostly Cloudy,50,2014-05-03 06:53:00
3:53 AM,78.1,68.0,71,29.94,10.0,NE,3.5,-,N/A,,Mostly Cloudy,40,2014-05-03 07:53:00
4:53 AM,77.0,69.1,76,29.94,10.0,ESE,5.8,-,N/A,,Overcast,120,2014-05-03 08:53:00
5:53 AM,77.0,69.8,78,29.94,10.0,SE,3.5,-,N/A,Rain,Light Rain,140,2014-05-03 09:53:00
6:53 AM,78.1,71.1,79,29.94,10.0,South,8.1,-,0.00,,Mostly Cloudy,170,2014-05-03 10:53:00
7:53 AM,77.0,72.0,84,29.94,10.0,South,10.4,-,N/A,,Overcast,190,2014-05-03 11:53:00
8:53 AM,78.1,71.1,79,29.94,10.0,South,8.1,-,N/A,,Overcast,170,2014-05-03 12:53:00
9:53 AM,80.1,72.0,76,29.96,10.0,SSW,5.8,-,N/A,,Overcast,210,2014-05-03 13:53:00
10:53 AM,84.0,72.0,67,29.97,10.0,SSW,6.9,-,N/A,,Mostly Cloudy,210,2014-05-03 14:53:00
11:53 AM,86.0,69.1,57,29.98,10.0,SW,10.4,-,N/A,,Mostly Cloudy,230,2014-05-03 15:53:00
12:53 PM,87.1,70.0,57,29.96,10.0,SW,9.2,-,N/A,,Mostly Cloudy,230,2014-05-03 16:53:00
1:53 PM,89.1,68.0,50,29.94,10.0,South,11.5,-,N/A,,Mostly Cloudy,180,2014-05-03 17:53:00
2:53 PM,87.1,69.1,55,29.94,10.0,WSW,13.8,-,N/A,,Mostly Cloudy,240,2014-05-03 18:53:00
3:24 PM,82.0,69.1,65,29.94,10.0,West,15.0,28.8,0.00,Rain,Light Rain,270,2014-05-03 19:24:00
3:34 PM,77.0,70.0,79,29.96,10.0,WNW,17.3,26.5,0.00,Rain-Thunderstorm,Light Thunderstorms and Rain,290,2014-05-03 19:34:00
3:53 PM,73.4,69.8,88,29.94,7.0,WNW,12.7,23.0,N/A,Rain-Thunderstorm,Light Thunderstorms and Rain,290,2014-05-03 19:53:00
4:10 PM,75.0,70.0,84,29.95,7.0,WSW,6.9,-,0.01,Rain,Rain,250,2014-05-03 20:10:00
4:53 PM,77.0,72.0,84,29.95,9.0,WNW,8.1,-,0.22,Rain,Light Rain,290,2014-05-03 20:53:00
5:53 PM,77.0,71.1,82,29.97,10.0,NW,6.9,-,0.00,,Overcast,320,2014-05-03 21:53:00
6:53 PM,77.0,72.0,84,29.96,10.0,NNE,5.8,-,0.00,,Overcast,30,2014-05-03 22:53:00
7:53 PM,75.9,70.0,82,29.97,10.0,NNE,4.6,-,N/A,,Mostly Cloudy,30,2014-05-03 23:53:00
8:53 PM,75.9,71.1,85,29.99,10.0,NNW,3.5,-,N/A,,Overcast,330,2014-05-04 00:53:00
9:53 PM,75.9,71.1,85,30.00,10.0,Calm,Calm,-,0.00,,Mostly Cloudy,0,2014-05-04 01:53:00
10:53 PM,75.9,71.1,85,30.02,10.0,NW,3.5,-,N/A,,Overcast,320,2014-05-04 02:53:00
11:53 PM,75.9,71.1,85,30.01,10.0,SSE,5.8,-,0.00,Rain,Light Rain,160,2014-05-04 03:53:00